Tracking 29892 objects as of 21-Nov-2024
HD Live streaming from Space Station
objects crossing your sky now

CZ-6A DEB

Track CZ-6A DEB now!
10-day predictions


NORAD ID: 54984
Int'l Code: 2022-151TZ
Perigee: 829.4 km
Apogee: 1,146.3 km
Inclination: 98.9 °
Period: 104.7 minutes
Semi major axis: 7358 km
RCS: Unknown
Launch date: November 11, 2022
Source: People's Republic of China (PRC)
Launch site: Taiyaun Space Center, China (TSC)

Note: This is SATELLITE DEBRIS
Your satellite tracking list
Your tracking list is empty




NASA's NSSDC Master Catalog

Two Line Element Set (TLE):
1 54984U 22151TZ  24325.34370947  .00001564  00000-0  14151-2 0  9994
2 54984  98.9025 287.9238 0215341 270.5660  87.0821 13.75262925100285
Source of the keplerian elements: AFSPC